Theta_e
347 354 361 361 361 360 361 361 361 361 363 364 362 363 362 364 364 363 363 363 363 363 364 363 364 363 362 361 361 361 361 361 360 359 358 356 359 359 357 355 357 354 359
352 356 363 364 362 362 362 361 361 362 362 362 364 362 365 363 364 363 363 363 362 363 363 363 361 361 361 362 360 359 361 363 364 360 360 360 360 359 356 354 358 356 359
352 357 360 364 363 362 361 360 361 362 361 361 363 364 365 363 363 364 363 363 363 364 362 362 362 361 360 360 359 358 360 363 359 358 354 346 353 359 359 355 355 356 358
355 355 357 363 362 360 359 358 358 358 360 362 361 363 364 363 364 363 363 363 363 364 363 362 361 360 359 358 357 357 363 364 360 356 346 348 353 359 359 359 357 355 357
351 354 356 363 362 361 361 362 360 358 358 360 361 362 362 363 363 363 363 363 363 365 361 361 360 360 359 358 358 359 358 359 355 350 345 345 347 357 356 354 356 356 354
350 354 361 361 361 361 362 361 361 359 361 359 361 361 362 363 363 363 363 362 362 362 361 359 359 360 360 361 360 362 362 357 354 346 345 348 346 358 357 353 356 357 353
352 355 356 364 362 361 361 361 360 357 359 360 360 360 362 362 363 362 362 362 362 362 361 360 360 360 360 360 361 361 360 357 350 347 345 345 349 357 357 353 355 353 352
353 355 357 362 362 362 361 361 360 359 361 360 360 361 361 362 363 362 361 362 362 362 361 360 359 359 358 361 364 363 360 358 352 349 347 346 355 355 355 356 355 353 352
354 353 354 355 358 361 361 361 360 360 360 360 360 361 362 362 362 362 363 363 362 361 360 359 357 357 358 359 362 366 358 354 342 344 348 349 358 354 353 354 355 356 353
352 354 353 352 352 353 354 361 361 361 360 360 360 361 361 362 361 361 364 365 361 360 359 358 357 356 356 358 361 365 356 352 343 346 349 351 358 358 355 350 355 354 354
349 350 352 351 351 351 353 357 360 361 360 359 360 360 357 350 353 355 361 363 360 360 359 359 357 355 355 357 358 362 355 345 347 350 351 357 357 356 357 351 350 352 353
345 348 350 350 349 351 356 353 351 355 351 350 350 350 349 347 350 354 358 362 361 360 359 358 357 357 357 352 348 356 347 347 348 350 352 357 358 353 352 350 350 349 350
347 348 350 349 350 349 351 350 351 350 349 349 348 347 346 347 350 349 351 351 350 357 351 355 353 353 352 353 352 348 347 347 348 351 355 360 358 356 352 351 351 351 350
344 347 349 348 345 342 347 348 348 347 349 348 348 346 343 344 344 346 346 347 346 348 344 348 344 347 345 346 347 345 343 343 343 346 351 359 360 358 354 353 353 354 352
342 346 346 345 339 335 341 344 345 346 347 347 345 349 346 345 341 344 346 346 345 343 344 343 345 342 342 339 337 339 339 341 343 349 350 358 359 360 357 354 355 354 353
344 344 343 344 342 334 335 342 340 344 346 347 348 348 347 345 342 344 343 344 344 347 346 342 343 345 344 339 339 338 338 339 341 344 346 350 359 359 356 355 355 355 355
346 345 342 341 342 335 337 343 342 347 346 347 349 350 347 344 345 344 345 345 345 344 339 340 346 344 344 344 339 340 340 341 340 341 344 346 351 358 356 357 358 358 356
346 345 344 346 340 336 340 344 340 343 344 343 348 348 348 346 344 348 346 344 345 345 343 346 340 338 343 343 338 339 341 342 341 339 342 343 346 349 355 361 361 362 359
346 346 344 344 343 344 346 342 338 341 341 343 349 351 350 352 353 348 350 346 347 347 343 341 342 340 340 338 338 339 340 341 341 345 344 344 343 346 345 352 361 362 361
344 340 347 345 345 345 345 343 343 343 344 347 349 349 352 352 350 348 352 348 347 343 341 340 341 345 342 338 342 338 340 340 342 342 343 344 345 346 347 347 348 355 361
339 341 342 343 344 346 344 342 341 341 345 345 345 352 350 353 348 346 347 347 346 343 341 344 348 343 342 342 337 338 335 336 337 340 342 342 343 346 349 348 348 350 352
337 343 343 345 343 344 348 347 348 347 347 346 345 351 352 353 349 346 346 346 347 344 344 344 346 344 341 338 336 335 327 330 334 336 338 340 341 342 348 350 350 351 352
340 344 346 346 342 344 347 347 344 345 346 346 347 347 351 352 352 352 349 347 347 347 343 344 346 345 341 341 340 336 328 325 329 332 333 337 336 340 345 348 349 351 349
342 345 347 347 346 348 346 342 340 342 340 344 345 347 350 351 351 352 351 349 348 346 345 347 352 347 344 343 342 343 338 338 329 327 335 340 341 343 341 343 346 347 350
343 346 346 346 345 349 349 343 341 340 340 342 345 348 348 349 351 351 351 351 347 344 345 347 348 346 348 347 344 342 340 338 336 334 331 337 340 341 344 344 345 348 352
343 347 346 344 344 347 348 347 342 335 337 339 343 345 346 347 349 350 350 350 349 347 345 349 348 347 347 349 348 345 339 336 329 333 334 334 334 338 341 344 343 347 353
Wind_Speed
3 5 12 14 14 14 14 15 14 14 14 14 15 15 15 17 17 15 14 15 15 16 16 17 17 18 18 18 18 18 20 19 18 17 17 17 16 16 16 15 14 11 14
10 8 12 14 15 15 14 15 14 13 13 13 13 14 15 16 17 17 16 16 15 16 16 17 18 18 18 17 17 17 18 18 18 19 17 17 16 15 16 15 13 12 14
11 9 10 14 15 15 14 14 13 12 14 12 13 13 15 16 16 16 16 16 15 16 16 16 17 17 17 16 16 16 17 17 18 17 16 5 6 13 16 15 14 14 14
11 7 8 13 13 14 14 14 14 12 12 13 12 12 12 16 15 17 16 15 15 15 15 16 15 15 15 15 13 13 15 16 16 14 5 4 8 14 13 14 14 16 14
10 7 10 13 13 13 13 14 14 13 14 13 14 13 11 15 16 16 15 14 14 14 14 14 14 13 13 14 11 11 11 8 15 11 6 5 4 11 14 12 13 15 14
10 8 13 14 14 12 14 12 13 12 13 14 12 14 11 15 16 14 14 14 13 13 14 13 13 12 10 12 12 13 17 19 14 5 5 6 5 12 15 12 11 14 12
11 9 10 12 15 13 14 13 13 12 12 12 12 13 13 13 15 13 12 12 12 12 12 11 12 10 9 10 7 12 16 17 8 5 6 5 5 10 12 12 12 12 11
13 8 9 13 14 13 14 14 12 12 11 12 12 13 13 14 14 13 11 11 12 12 9 9 7 9 8 10 17 16 15 16 9 6 5 4 7 10 10 10 11 11 10
12 9 6 6 11 13 13 14 13 13 11 12 11 14 15 13 13 13 11 12 12 11 8 7 5 5 7 9 9 12 14 14 6 4 7 3 8 10 9 8 7 11 9
9 9 8 6 5 6 5 13 13 13 12 11 11 12 13 13 13 12 8 10 11 9 8 6 3 2 3 6 7 15 14 13 3 4 3 4 8 9 10 8 7 8 7
9 6 7 7 6 4 5 7 11 12 11 12 10 13 8 3 5 7 7 9 9 8 7 5 3 1 2 4 5 7 13 3 4 3 3 8 8 8 9 7 6 6 5
9 8 7 7 6 5 5 5 4 5 4 4 4 5 3 2 3 4 7 9 9 8 6 4 2 1 1 2 1 3 2 4 3 3 2 9 9 8 7 7 6 4 4
13 8 8 6 6 4 4 3 2 2 3 3 4 4 3 2 1 2 1 1 1 2 2 1 3 2 3 4 3 3 4 4 2 2 5 9 9 8 7 6 5 5 4
11 11 8 8 6 5 4 2 2 0 2 3 4 5 4 3 3 3 2 3 2 1 1 3 1 4 5 6 6 6 6 4 3 2 4 8 8 8 6 7 6 6 6
10 8 9 8 7 6 5 3 2 2 2 3 4 4 3 4 4 2 2 2 2 3 2 3 1 2 5 2 5 9 6 5 5 2 2 10 7 8 8 8 8 8 7
11 9 8 8 7 6 5 2 2 1 1 3 3 5 6 4 3 4 3 4 2 1 1 1 3 4 4 3 5 6 7 5 5 5 3 4 9 9 10 9 9 9 9
10 9 9 6 4 6 7 4 3 3 3 4 2 6 4 5 4 3 4 4 4 2 2 3 3 3 4 3 2 4 4 5 5 5 4 4 4 10 11 12 11 10 11
13 9 6 7 8 7 5 4 2 3 4 1 1 5 5 5 5 3 3 2 2 3 2 1 3 3 3 2 0 3 3 4 5 5 4 4 4 4 8 12 12 12 14
13 11 9 6 6 7 4 3 3 2 3 1 1 3 6 5 4 3 4 1 2 2 2 1 1 1 2 1 2 3 3 3 4 4 6 6 6 5 4 8 12 13 15
11 8 11 7 7 6 3 3 2 2 2 0 3 3 4 4 4 4 3 1 3 3 2 1 1 2 2 2 2 3 3 3 4 4 4 5 5 6 5 5 4 6 15
10 8 8 8 8 6 3 2 2 2 1 0 3 4 5 5 4 4 2 2 2 2 1 1 1 4 3 2 1 2 2 4 4 5 4 4 4 6 5 5 3 4 4
11 10 8 8 9 6 4 3 3 3 2 1 1 2 4 5 5 4 3 3 2 1 2 2 4 3 2 1 2 2 3 4 3 1 4 5 5 4 6 5 6 6 4
12 12 12 9 8 6 5 4 3 2 3 1 1 2 3 5 5 5 5 3 2 2 1 2 2 3 2 3 1 4 2 3 2 3 2 1 2 3 6 5 7 5 3
13 13 13 9 8 6 7 3 5 4 4 3 3 2 3 5 5 5 4 5 3 3 2 1 1 1 2 4 3 3 1 3 2 3 4 4 3 3 4 5 5 4 4
14 14 13 10 8 7 7 6 4 4 2 2 2 4 4 3 4 5 6 6 4 2 3 2 1 1 2 2 2 2 3 4 3 3 1 5 3 3 4 3 4 3 4
13 12 12 10 8 7 6 7 8 7 6 4 4 4 3 2 2 3 4 5 4 3 2 3 1 2 2 3 2 3 2 1 1 1 2 2 2 4 2 4 4 4 1
Wind_Direction
147 153 135 129 121 116 113 115 113 109 108 109 110 113 111 107 106 105 101 101 106 104 101 99 99 101 98 103 101 100 102 100 103 100 100 102 99 95 91 89 91 86 87
136 142 139 132 124 123 115 113 112 114 117 114 109 107 105 107 110 110 108 111 109 106 101 100 101 100 102 105 108 108 108 108 104 102 104 104 100 100 98 91 90 91 86
135 135 135 129 123 119 119 117 116 116 112 118 113 106 105 107 108 107 109 108 110 106 104 105 110 110 105 106 107 113 113 105 108 104 98 83 94 91 98 94 90 82 80
129 116 120 122 126 128 128 127 126 124 120 116 111 114 114 113 111 106 107 104 110 112 111 108 111 112 109 111 122 131 123 113 108 94 74 76 92 98 94 85 94 89 74
119 122 135 129 132 133 130 126 125 127 127 125 128 121 120 113 112 111 112 109 108 108 110 114 114 116 115 109 116 148 176 168 107 91 79 70 65 99 89 85 85 88 82
131 137 133 139 137 140 127 129 121 124 125 124 125 124 121 114 113 113 110 112 114 112 116 118 119 121 117 116 128 109 102 110 104 94 85 81 70 85 101 92 82 96 94
133 134 138 143 131 133 128 128 123 124 126 126 132 129 118 116 115 114 116 115 120 127 116 120 123 123 108 86 107 127 119 116 107 109 93 92 91 97 94 102 92 89 85
135 134 141 135 131 133 127 126 127 122 124 134 130 126 128 125 125 124 121 125 126 127 124 118 124 119 105 80 110 117 122 125 122 117 111 111 117 109 99 92 104 98 96
134 132 124 131 139 128 128 129 127 124 121 123 128 127 126 128 127 126 123 126 123 127 123 121 112 94 99 88 89 127 123 130 123 134 124 119 122 116 111 106 94 107 101
133 135 133 122 111 123 134 130 131 127 129 131 130 129 131 133 129 122 109 119 116 114 106 96 83 25 68 99 104 125 130 135 134 121 132 151 141 138 115 112 101 91 114
143 148 140 131 127 130 123 138 131 134 140 142 135 138 113 99 114 115 129 121 120 123 127 138 139 108 2 39 89 129 142 141 143 160 160 148 134 128 130 124 123 118 110
153 155 149 145 145 152 137 121 133 136 122 106 114 104 100 130 143 145 138 139 144 153 158 160 160 207 346 359 11 121 151 156 154 162 157 152 151 142 142 144 145 149 157
161 156 157 145 145 153 129 145 136 147 133 136 152 159 169 152 189 117 123 107 249 149 12 323 304 287 251 177 210 159 159 148 162 195 169 167 166 161 157 166 177 187 196
163 152 149 142 116 103 107 132 86 234 158 161 178 173 152 157 175 196 174 181 187 59 227 229 325 291 283 283 180 179 154 156 176 193 188 177 187 187 183 192 204 218 225
140 140 145 132 136 132 117 110 87 163 168 205 172 180 166 158 193 187 216 252 157 141 167 189 213 2 353 101 104 134 158 174 173 188 203 191 197 201 211 216 222 229 239
140 147 143 157 152 144 133 134 158 124 160 172 196 171 189 185 172 205 205 224 231 248 135 80 38 6 9 37 125 155 172 173 174 182 196 212 208 220 230 234 236 241 248
144 146 155 160 164 156 145 177 170 211 121 99 256 183 167 139 161 196 181 193 183 202 116 32 350 5 4 16 101 154 180 190 186 190 196 207 226 228 234 239 244 250 256
145 151 160 163 151 144 168 164 180 237 95 95 360 130 148 140 155 113 129 113 160 164 120 48 12 345 344 266 248 240 197 189 203 197 195 211 220 229 242 246 250 253 256
153 151 165 157 149 142 169 130 170 245 83 185 300 127 140 117 111 94 112 184 215 105 105 61 309 306 3 322 223 237 249 244 220 199 211 216 219 232 238 248 249 255 259
157 150 155 151 150 155 132 85 68 37 264 222 213 159 129 121 114 88 92 41 16 84 48 23 354 293 197 212 275 184 256 259 261 250 229 233 218 230 242 246 260 254 257
151 142 151 145 153 144 100 143 99 212 161 286 238 160 158 140 139 117 119 128 7 73 89 303 345 23 322 15 41 12 289 261 225 239 259 244 235 233 240 260 245 254 273
150 151 157 171 155 167 153 143 153 156 211 183 195 186 179 159 154 154 190 189 215 78 24 17 38 352 324 330 130 88 1 330 331 257 250 257 239 249 234 223 247 251 268
147 157 163 173 161 157 131 116 80 75 47 89 192 195 215 175 172 177 198 185 210 127 222 10 25 24 344 311 356 132 72 241 338 334 333 326 346 271 260 221 246 237 252
161 161 159 167 149 146 142 150 162 157 154 190 184 195 188 182 171 160 167 158 138 145 115 45 257 48 94 11 341 25 92 162 159 344 341 318 314 298 280 272 263 259 228
157 169 166 165 152 158 158 166 157 139 144 155 175 165 183 202 182 177 149 149 159 135 127 103 92 70 59 68 359 354 46 39 26 126 307 326 345 270 252 261 270 271 243
166 162 164 166 163 166 158 157 161 164 168 147 171 162 182 194 172 201 168 160 151 164 150 134 173 118 92 77 36 11 97 82 276 75 86 297 286 302 302 27 12 328 258